Rbgn^[z[y[W
メイン
   新天体発見情報
     Comet P/2020 V3 (PANSTARRS)
投稿するにはまず登録を

スレッド表示 | 新しいものから 前のトピック | 次のトピック | 下へ
投稿者 スレッド
佐藤裕久
投稿日時: 2020-11-30 21:18
モデレータ
登録日: 2005-6-12
居住地: 日本
投稿: 2697
オンライン
Comet P/2020 V3 (PANSTARRS)

Y. Ramanjooloo (ハワイ大学天文学研究所)の通報によると、11月10日、Haleakalaにある
Pan-STARRS1 1.8-m Ritchey-Chretien反射望遠鏡で得た45秒w-バンドCCD画像から彗星を
発見した。かすかで、p.a. 281°に向かって真直ぐな3".2の尾が伸びている。非常に集光
したコマは1".3のシーイングで2".4(半値全幅:FWHM)であった。
R. Werykは、11月11.5日UT、R. Wainscoatと彼が、Mauna Keaにある3.6-m Canada-France-
Hawaii望遠鏡で得たフォローアップ観測から、この天体は明らかに彗星で、6枚の60秒gri-
バンド露出で、1".25のシーイングで拡散した約1".9(半値全幅:FWHM)のコマが見え、p.a. 
285°に真直ぐな4"の尾があると書き込んだ。
小惑星センターのPCCP webpageの公表後、E. J. Christensen (Steward天文台, Mt Lemmon,
1.0-m 反射望遠鏡, 11月11.34日-11.37日UT、彗星状の外観を見つけた。光度は19.8-20.3等)
や佐藤英貴氏(東京都文京区, iTelescope天文台, 11月12.4日UT、60秒露出20枚のスタック, 
0.43-m f/6.8 アストログラフ, Mayhill近郊, NM, 遠隔操作:強く集光した6"のコマが見える
が尾はない。5".7の円形範囲で測定した光度は20.0等であった)らCCD位置観測者によって彗星
状と観測された。

彗星機能の報告は次の通り:

OC   Date        Reporter           Coma    Tail    PA          Exposures
I52  2020-11-11  E. J. Christensen 10"
568  2020-11-11  R. Weryk           0".7      4"    285           6x60s
H06  2020-11-12  H. Sato            6"                           20x60s
246  2020-11-25  M. Tichy           5"

発見位置は次のとおり、

     2020 UT             R.A. (2000) Decl.       Mag.
     Nov. 10.47799    5 41 49.80   - 0 01 38.1   20.6
          10.49233    5 41 49.56   - 0 01 40.9   20.5
          10.52127    5 41 49.07   - 0 01 47.0   20.7

MPCの楕円軌道要素、位置推算表は次のとおり、

Orbital elements:
    P/2020 V3 (PANSTARRS)                                                       
Epoch 2020 Dec. 17.0 TT = JDT 2459200.5                                         
T 2020 Dec. 7.89433 TT                                  Veres                   
q   6.2387377            (2000.0)            P               Q                  
n   0.04048288     Peri.  244.77974     +0.14191415     -0.98215061             
a   8.4001775      Node   198.37784     +0.98895892     +0.14605113             
e   0.2573088      Incl.   23.05177     +0.04266871     -0.11852953             
P  24.3                                                                         
From 89 observations 2020 Oct. 17-Nov. 25, mean residual 1".0.                  
                                                                                
    P/2020 V3 (PANSTARRS)                                                       
Epoch 2045 May 20.0 TT = JDT 2468120.5                                          
T 2045 May 23.85651 TT                                  Veres                   
q   6.2378994            (2000.0)            P               Q                  
n   0.04016962     Peri.  244.74686     +0.14453595     -0.98189354             
a   8.4437930      Node   198.24666     +0.98856164     +0.14867584             
e   0.2612444      Incl.   23.02198     +0.04307255     -0.11739066             
P  24.5                                                                         
From 89 observations 2020 Oct. 17-Nov. 25, mean residual 1".0.                  
                                                                                
    P/2020 V3 (PANSTARRS)                                                       
Epoch 2020 Dec. 17.0 TT = JDT 2459200.5                                         
T 2020 Dec. 7.89433 TT                                  Veres                   
q   6.2387377            (2000.0)            P               Q                  
n   0.04048288     Peri.  244.77974     +0.14191415     -0.98215061             
a   8.4001775      Node   198.37784     +0.98895892     +0.14605113             
e   0.2573088      Incl.   23.05177     +0.04266871     -0.11852953             
P  24.3                                                                         
From 89 observations 2020 Oct. 17-Nov. 25, mean residual 1".0.                  
                                                                                
Ephemeris:
Date    TT    R. A. (2000) Decl.     Delta      r    Elong.  Phase   m1
2020 10 28    05 44 32.0 +00 47 53   5.6112  6.2404   125.5     7.5  20.0
...
2020 11 12    05 41 25.2 -00 06 46   5.4626  6.2394   138.6     6.0  19.9
...
2020 11 20    05 38 58.1 -00 31 54   5.4039  6.2391   145.0     5.2  19.9
...
2020 11 26    05 36 50.8 -00 48 16   5.3706  6.2389   149.2     4.6  19.9
2020 11 27    05 36 28.4 -00 50 46   5.3660  6.2389   149.8     4.6  19.9
2020 11 28    05 36 05.7 -00 53 12   5.3617  6.2388   150.4     4.5  19.9
...
2020 12 04    05 33 44.2 -01 06 19   5.3414  6.2388   153.5     4.0  19.9
...
2020 12 12    05 30 25.7 -01 19 33   5.3301  6.2388   155.4     3.8  19.9
...
2020 12 27    05 24 12.8 -01 30 17   5.3588  6.2391   151.3     4.3  19.9

(MPEC 2020-W178, CBET 4888)

スレッド表示 | 新しいものから 前のトピック | 次のトピック | トップ

投稿するにはまず登録を
 
© 1999 Tsutomu Seki.